#timestamp,LO_Frequency,Hit,StdDev 
1521169215.2,286046998.4,N
1521169235.1,286046999.1,N
1521169236.0,286046999.1,N
1521169255.8,286047000.5,N
1521169275.6,286047000.2,N
1521169295.5,286047000.2,N
1521169315.3,286047002.6,N
1521169335.2,286046998.2,N
1521169355.9,286046998.3,N
1521169375.7,286046999.8,N
1521169395.6,286047000.1,N
1521169415.4,286046999.8,N
1521169435.3,286047000.4,N
1521169455.1,286047002.8,N
1521169456.0,286047002.8,N
1521169475.8,286047000.6,N
1521169495.7,286047001.8,N
1521169515.5,286047002.5,N
1521169535.4,286047002.3,N
1521169555.2,286047001.4,N
1521169575.0,286047002.5,N
1521169575.9,286047002.5,N
1521169595.8,286047000.0,N
1521169615.6,286046999.7,N
1521169635.4,286046999.8,N
1521169655.3,286047002.8,N
1521169675.1,286046998.7,N
1521169695.9,286047000.3,N
1521169715.7,286047000.9,N
1521169735.5,286046999.9,N
1521169755.4,286047001.5,N
1521169775.2,286047000.0,N
1521169795.0,286047001.8,N
1521169796.0,286047001.8,N
1521169815.8,286047002.0,N
1521169835.6,286047002.6,N
1521169855.5,286047002.5,N
1521169875.3,286047002.8,N
1521169895.1,286047001.6,N
1521169915.9,286047002.7,N
1521169935.7,286047000.0,N
1521169955.6,286047002.7,N
1521169975.4,286047003.7,Y
1521169995.2,286047002.7,P
1521170015.1,286046999.8,N
1521170016.0,286046999.8,N
1521170035.8,286047002.7,N
1521170055.6,286046998.1,N
1521170075.5,286046998.2,N
1521170095.3,286046998.7,N
1521170115.2,286046996.6,N
1521170135.9,286046998.7,N
1521170155.7,286046999.0,N
1521170175.6,286046999.4,N
1521170195.4,286047001.1,N
1521170215.2,286047001.1,N
1521170235.1,286046997.2,N
1521170236.0,286046997.2,N
1521170255.8,286046999.4,N
1521170275.7,286046998.2,N
1521170295.5,286046999.4,N
1521170315.3,286046996.6,N
1521170335.2,286046998.9,N
1521170355.0,286047000.7,N
1521170355.9,286047000.7,N
1521170375.7,286047002.7,N
1521170395.6,286046999.8,N
1521170415.4,286046999.3,N
1521170435.3,286046999.3,N
1521170455.1,286046999.6,N
1521170456.0,286046999.6,N
1521170475.8,286046999.6,N
1521170495.7,286046996.5,N
1521170515.5,286046996.5,N
1521170535.3,286046996.9,N
1521170555.2,286046996.8,N
1521170575.0,286046997.0,N
1521170575.9,286046997.0,N
1521170595.8,286046999.6,N
1521170615.6,286046998.0,N
1521170635.4,286046996.5,N
1521170655.3,286046999.0,N
1521170675.1,286047000.7,N
1521170695.9,286047001.2,N
1521170715.7,286046998.5,N
1521170735.5,286046998.1,N
1521170755.4,286046998.1,N
1521170775.2,286046999.1,N
1521170795.0,286046996.6,N
1521170795.9,286046996.6,N
1521170815.8,286046999.5,N
1521170835.6,286046998.8,N
1521170855.5,286046998.4,N
1521170875.3,286046999.4,N
1521170895.1,286046999.1,N
1521170915.9,286046999.1,N
1521170935.7,286046998.2,N
1521170955.5,286046996.9,N
1521170975.4,286046997.5,N
1521170995.2,286046999.1,N
1521171015.1,286046998.3,N
1521171016.0,286046998.3,N
1521171035.8,286046998.4,N
1521171055.6,286046999.0,N
1521171075.5,286046998.9,N
1521171095.3,286046999.4,N
1521171115.2,286046996.7,N
1521171135.9,286047001.2,N
1521171155.7,286047001.1,N
1521171175.6,286047000.4,N
1521171195.4,286047000.6,N
1521171215.2,286047000.0,N
1521171235.1,286047000.4,N
1521171236.0,286047000.4,N
1521171255.8,286047002.8,N
1521171275.7,286046999.8,N
1521171295.5,286047000.6,N
1521171315.3,286047002.0,N
1521171335.2,286047001.9,N
1521171355.0,286046999.7,N
1521171355.9,286046999.7,N
1521171375.8,286047002.7,N
1521171395.6,286047001.5,N
1521171415.4,286047002.8,N
1521171435.3,286047000.5,N
1521171455.1,286047000.8,N
1521171475.9,286047000.2,N
1521171495.7,286046998.1,N
1521171515.5,286046999.0,N
1521171535.4,286046998.6,N
1521171555.2,286046998.7,N
1521171575.0,286047000.7,N
1521171576.0,286047000.7,N
1521171595.8,286047000.6,N
1521171615.6,286046999.8,N
1521171635.5,286047002.7,N
1521171655.3,286047002.1,N
1521171675.1,286046999.9,N
1521171695.9,286047002.4,N
1521171715.7,286047000.1,N
1521171735.6,286047002.4,N
1521171755.4,286047002.2,N
1521171775.2,286047000.4,N
1521171795.1,286047001.2,N
1521171796.0,286047001.2,N
1521171815.8,286047000.3,N
1521171835.7,286047001.0,N
1521171855.5,286046998.4,N
1521171875.3,286046998.3,N
1521171895.2,286046998.9,N
1521171915.0,286046997.1,N
1521171915.9,286046997.1,N
1521171935.8,286046997.1,N
1521171955.6,286046998.2,N
1521171975.4,286046997.3,N
1521171995.3,286046997.3,N
1521172015.1,286046997.9,N
1521172035.8,286046999.3,N
1521172055.7,286046998.5,N
1521172075.5,286046996.5,N
1521172095.4,286046999.0,N
1521172115.2,286046998.2,N
1521172135.0,286046998.8,N
1521172135.9,286046998.8,N
1521172155.8,286046998.2,N
1521172175.6,286047000.1,N
1521172195.5,286047001.0,N
1521172215.3,286047001.2,N
1521172235.1,286047000.9,N
1521172255.9,286046998.4,N
1521172275.7,286046998.3,N
1521172295.6,286046998.6,N
1521172315.4,286047001.1,N
1521172335.2,286046998.5,N
1521172355.1,286046998.2,N
1521172356.0,286046998.2,N
1521172375.8,286047000.0,N
1521172395.7,286047000.1,N
1521172415.5,286047000.0,N
1521172435.3,286047002.1,N
1521172455.2,286047003.9,N
1521172475.0,286047001.3,N
1521172475.9,286047001.3,N
1521172495.7,286047001.7,N
1521172515.6,286047000.9,N
1521172535.4,286047002.3,N
1521172555.3,286046999.8,N
1521172575.1,286047002.4,N
1521172595.8,286047000.0,N
1521172615.7,286046999.7,N
1521172635.5,286047001.3,N
1521172655.4,286046999.7,N
1521172675.2,286047000.6,N
1521172695.0,286047002.1,N
1521172695.9,286047002.1,N
1521172715.8,286047002.1,N
1521172735.6,286047002.7,N
1521172755.5,286047000.2,N
1521172775.3,286047002.3,N
1521172795.1,286047002.8,N
